Thunderstorms From: 25-05-2018 15:00 Until: 26-05-2018 15:00 warning for: Thunderstorms Level: Yellow info button

Although rather usual in this region, locally or potentially dangerous phenomena are expected. (such as local winds, summer thunderstorms, rising streams or high waves) Be aware and pay attention to the latest weather updates, especially if you carry out activities exposed to weather or close to a stream or shoreline. 


Meteo18 Weather Cam more information Meteo18 Weather Cam


warning for Thunderstorms more information blitzortung!


Rain radar more information rain snow radar


Visit our other weather sites:

Template documentation
and downloads

And another site



Weather Underground History page Text

Daily Summary for October 14, 2016 Units:  Metric    English   Both
« Previous Day
Next Day »
Daily Weekly Monthly Yearly Custom
  High: Low: Average:
Temperature: -17.8 °C -13 °C -11.6 °C
Dew Point: -17.8 °C -13.4 °C -12 °C
Humidity: Humidity % 93 % 95 %
Wind Speed: 0 km/h 0 km/h 3.4 km/h
Wind Gust: 0 km/h - -
Wind:- - SE
Pressure: 0 hPa 33866.8 hPa -
Precipitation: 251.46 mm    
Historical Graphs
 
 
Tabular Data for October 14, 2016
Time Temperature Dew Point Pressure Wind Wind Speed Wind Gust Humidity Rainfall Rate (Hourly)
-17.8 °C -17.8 °C 0 hPa Calm     Humidity % 0 mm
00:02 -12.3 °C -12.9 °C 33981.9 hPa Calm   5.1 km/h 93 % 0 mm
00:07 -12.3 °C -12.9 °C 33981.9 hPa Calm   7.7 km/h 93 % 0 mm
00:12 -12.3 °C -12.8 °C 33981.9 hPa Calm   7.7 km/h 94 % 0 mm
00:17 -12.3 °C -12.8 °C 33981.9 hPa Calm   7.7 km/h 94 % 0 mm
00:22 -12.3 °C -12.8 °C 33981.9 hPa Calm   7.7 km/h 94 % 0 mm
00:27 -12.3 °C -12.9 °C 33981.9 hPa Calm   7.7 km/h 93 % 0 mm
00:32 -12.3 °C -12.9 °C 33981.9 hPa Calm   7.7 km/h 93 % 0 mm
00:42 -12.3 °C -12.9 °C 33981.9 hPa Calm   5.1 km/h 93 % 0 mm
00:52 -12.4 °C -12.9 °C 33981.9 hPa ESE 2.6 km/h 7.7 km/h 94 % 0 mm
00:57 -12.4 °C -12.9 °C 33971.7 hPa Calm   7.7 km/h 94 % 0 mm
01:02 -12.4 °C -12.9 °C 33971.7 hPa Calm   7.7 km/h 94 % 0 mm
01:07 -12.4 °C -12.9 °C 33971.7 hPa Calm   7.7 km/h 94 % 0 mm
01:12 -12.4 °C -12.9 °C 33971.7 hPa SE 2.6 km/h 5.1 km/h 94 % 0 mm
01:17 -12.4 °C -12.9 °C 33971.7 hPa East 5.1 km/h 7.7 km/h 94 % 0 mm
01:22 -12.4 °C -12.9 °C 33971.7 hPa Calm   7.7 km/h 94 % 0 mm
01:32 -12.4 °C -12.9 °C 33958.2 hPa Calm   5.1 km/h 94 % 0 mm
01:37 -12.4 °C -12.9 °C 33958.2 hPa Calm   5.1 km/h 94 % 0 mm
01:42 -12.5 °C -13 °C 33958.2 hPa Calm   5.1 km/h 94 % 0 mm
01:47 -12.6 °C -13.1 °C 33971.7 hPa Calm   2.6 km/h 94 % 0 mm
01:57 -12.6 °C -13.1 °C 33971.7 hPa Calm     94 % 0 mm
02:02 -12.6 °C -13.1 °C 33971.7 hPa Calm   2.6 km/h 94 % 0 mm
02:07 -12.6 °C -13.1 °C 33971.7 hPa Calm   2.6 km/h 94 % 0 mm
02:12 -12.6 °C -13.1 °C 33971.7 hPa Calm   2.6 km/h 94 % 0 mm
02:17 -12.6 °C -13.1 °C 33971.7 hPa Calm   2.6 km/h 94 % 0 mm
02:22 -12.6 °C -13.1 °C 33958.2 hPa Calm   2.6 km/h 95 % 0 mm
02:27 -12.6 °C -13.1 °C 33958.2 hPa Calm     94 % 0 mm
02:32 -12.6 °C -13.1 °C 33958.2 hPa Calm     95 % 0 mm
02:37 -12.6 °C -13.1 °C 33958.2 hPa Calm     95 % 0 mm
02:42 -12.6 °C -13 °C 33958.2 hPa Calm     95 % 0 mm
02:47 -12.6 °C -13 °C 33958.2 hPa Calm     95 % 0 mm
02:52 -12.6 °C -13 °C 33958.2 hPa Calm     95 % 0 mm
02:57 -12.6 °C -13.1 °C 33958.2 hPa Calm     94 % 0 mm
03:02 -12.6 °C -13.1 °C 33948 hPa Calm     95 % 0 mm
03:07 -12.6 °C -13 °C 33948 hPa Calm     95 % 0 mm
03:12 -12.6 °C -13 °C 33948 hPa Calm     95 % 0 mm
03:17 -12.6 °C -13 °C 33948 hPa Calm     95 % 0 mm
03:22 -12.6 °C -13.1 °C 33937.9 hPa Calm     95 % 0 mm
03:27 -12.7 °C -13.1 °C 33937.9 hPa Calm     95 % 0 mm
03:32 -12.7 °C -13.2 °C 33937.9 hPa Calm     95 % 0 mm
03:37 -12.7 °C -13.1 °C 33937.9 hPa Calm     95 % 0 mm
03:42 -12.7 °C -13.1 °C 33937.9 hPa Calm     95 % 0 mm
03:47 -12.7 °C -13.2 °C 33937.9 hPa Calm     94 % 0 mm
03:57 -12.8 °C -13.3 °C 33924.3 hPa Calm     95 % 0 mm
04:02 -12.8 °C -13.3 °C 33924.3 hPa Calm     95 % 0 mm
04:07 -12.8 °C -13.2 °C 33924.3 hPa Calm     95 % 0 mm
04:12 -12.8 °C -13.3 °C 33924.3 hPa Calm     95 % 0 mm
04:17 -12.9 °C -13.3 °C 33924.3 hPa Calm     95 % 0 mm
04:22 -12.9 °C -13.4 °C 33924.3 hPa Calm     95 % 0 mm
04:27 -12.9 °C -13.4 °C 33924.3 hPa Calm   2.6 km/h 95 % 0 mm
04:32 -13 °C -13.4 °C 33914.2 hPa Calm   2.6 km/h 95 % 0 mm
04:37 -13 °C -13.4 °C 33914.2 hPa Calm   2.6 km/h 95 % 0 mm
04:42 -13 °C -13.3 °C 33914.2 hPa Calm   2.6 km/h 96 % 0 mm
04:47 -12.9 °C -13.3 °C 33914.2 hPa Calm     96 % 0 mm
04:52 -12.9 °C -13.2 °C 33914.2 hPa Calm     96 % 0 mm
04:57 -12.8 °C -13.1 °C 33900.6 hPa Calm     96 % 0 mm
05:02 -12.8 °C -13.1 °C 33900.6 hPa Calm     96 % 0 mm
05:12 -12.8 °C -13.2 °C 33914.2 hPa Calm     96 % 0 mm
05:17 -12.9 °C -13.3 °C 33914.2 hPa Calm     95 % 0 mm
05:22 -12.9 °C -13.2 °C 33914.2 hPa Calm     96 % 0 mm
05:32 -12.9 °C -13.2 °C 33914.2 hPa Calm     96 % 0 mm
05:42 -12.8 °C -13.2 °C 33914.2 hPa Calm     96 % 0 mm
05:52 -12.7 °C -13 °C 33914.2 hPa Calm     96 % 0 mm
06:02 -12.6 °C -12.9 °C 33914.2 hPa Calm     96 % 0 mm
06:17 -12.5 °C -12.8 °C 33914.2 hPa Calm     96 % 0 mm
06:22 -12.5 °C -12.8 °C 33914.2 hPa Calm     96 % 0 mm
06:32 -12.5 °C -12.8 °C 33914.2 hPa Calm     96 % 7.62 mm
06:37 -12.6 °C -12.9 °C 33914.2 hPa Calm     96 % 7.62 mm
06:42 -12.6 °C -12.9 °C 33914.2 hPa Calm     96 % 7.62 mm
06:47 -12.6 °C -12.9 °C 33914.2 hPa Calm     96 % 7.62 mm
06:52 -12.5 °C -12.8 °C 33924.3 hPa Calm     96 % 7.62 mm
07:02 -12.5 °C -12.8 °C 33914.2 hPa Calm     96 % 12.7 mm
07:12 -12.4 °C -12.8 °C 33914.2 hPa Calm     96 % 12.7 mm
07:17 -12.4 °C -12.8 °C 33914.2 hPa SE 2.6 km/h   96 % 7.62 mm
07:22 -12.5 °C -12.8 °C 33914.2 hPa SE 2.6 km/h 5.1 km/h 96 % 7.62 mm
07:27 -12.5 °C -12.8 °C 33914.2 hPa SE 2.6 km/h 5.1 km/h 96 % 7.62 mm
07:32 -12.5 °C -12.8 °C 33900.6 hPa ESE 5.1 km/h 5.1 km/h 96 % 7.62 mm
07:37 -12.5 °C -12.8 °C 33900.6 hPa SE 2.6 km/h 7.7 km/h 96 % 7.62 mm
07:42 -12.5 °C -12.8 °C 33900.6 hPa Calm   7.7 km/h 96 % 7.62 mm
07:47 -12.4 °C -12.8 °C 33900.6 hPa SE 2.6 km/h 7.7 km/h 96 % 7.62 mm
07:52 -12.4 °C -12.8 °C 33900.6 hPa Calm   5.1 km/h 96 % 7.62 mm
07:57 -12.4 °C -12.8 °C 33900.6 hPa Calm   2.6 km/h 96 % 0 mm
08:07 -12.4 °C -12.7 °C 33900.6 hPa SE 2.6 km/h   96 % 0 mm
08:17 -12.3 °C -12.7 °C 33900.6 hPa SE 2.6 km/h 5.1 km/h 96 % 0 mm
08:22 -12.3 °C -12.7 °C 33900.6 hPa ESE 5.1 km/h 5.1 km/h 96 % 0 mm
08:32 -12.4 °C -12.7 °C 33900.6 hPa SE 5.1 km/h 7.7 km/h 96 % 0 mm
08:37 -12.4 °C -12.7 °C 33900.6 hPa SE 2.6 km/h 10.3 km/h 96 % 0 mm
08:42 -12.4 °C -12.7 °C 33900.6 hPa Calm   10.3 km/h 96 % 0 mm
08:52 -12.4 °C -12.7 °C 33900.6 hPa ENE 5.1 km/h 7.7 km/h 96 % 0 mm
08:57 -12.4 °C -12.7 °C 33900.6 hPa ENE 2.6 km/h 5.1 km/h 96 % 0 mm
09:02 -12.3 °C -12.7 °C 33900.6 hPa NE 5.1 km/h 7.7 km/h 96 % 0 mm
09:12 -12.3 °C -12.6 °C 33900.6 hPa NE 2.6 km/h 10.3 km/h 97 % 0 mm
09:17 -12.3 °C -12.6 °C 33900.6 hPa NE 7.7 km/h 10.3 km/h 97 % 0 mm
09:32 -12.2 °C -12.5 °C 33900.6 hPa NE 10.3 km/h 15.6 km/h 97 % 0 mm
09:42 -12.2 °C -12.4 °C 33900.6 hPa NE 10.3 km/h 15.6 km/h 97 % 0 mm
09:52 -12.1 °C -12.4 °C 33900.6 hPa NE 7.7 km/h 12.9 km/h 97 % 0 mm
09:57 -12.1 °C -12.3 °C 33900.6 hPa NE 7.7 km/h 10.3 km/h 97 % 0 mm
10:02 -12.1 °C -12.3 °C 33914.2 hPa NE 10.3 km/h 10.3 km/h 97 % 0 mm
10:12 -12.1 °C -12.3 °C 33914.2 hPa NE 7.7 km/h 12.9 km/h 97 % 0 mm
10:17 -12 °C -12.3 °C 33914.2 hPa NE 5.1 km/h 12.9 km/h 97 % 0 mm
10:22 -12 °C -12.3 °C 33914.2 hPa ENE 7.7 km/h 12.9 km/h 97 % 0 mm
10:32 -11.9 °C -12.2 °C 33924.3 hPa ENE 7.7 km/h 12.9 km/h 97 % 0 mm
10:42 -11.9 °C -12.2 °C 33924.3 hPa NE 10.3 km/h 10.3 km/h 97 % 0 mm
10:47 -11.9 °C -12.2 °C 33924.3 hPa ENE 2.6 km/h 12.9 km/h 97 % 0 mm
10:52 -11.8 °C -12.1 °C 33914.2 hPa NE 5.1 km/h 12.9 km/h 97 % 0 mm
11:02 -11.7 °C -12 °C 33924.3 hPa East 5.1 km/h 12.9 km/h 97 % 0 mm
11:07 -11.7 °C -12 °C 33914.2 hPa ENE 7.7 km/h 12.9 km/h 97 % 0 mm
11:12 -11.7 °C -11.9 °C 33914.2 hPa ENE 7.7 km/h 12.9 km/h 97 % 0 mm
11:17 -11.6 °C -11.9 °C 33914.2 hPa ENE 7.7 km/h 12.9 km/h 97 % 0 mm
11:27 -11.6 °C -11.9 °C 33914.2 hPa ENE 15.6 km/h 15.6 km/h 96 % 0 mm
11:32 -11.6 °C -11.9 °C 33914.2 hPa ENE 18.2 km/h 18.2 km/h 96 % 0 mm
11:42 -11.5 °C -11.8 °C 33914.2 hPa ENE 10.3 km/h 18.2 km/h 96 % 0 mm
11:47 -11.5 °C -11.8 °C 33914.2 hPa NE 5.1 km/h 18.2 km/h 96 % 0 mm
11:52 -11.5 °C -11.8 °C 33914.2 hPa ENE 7.7 km/h 15.6 km/h 96 % 0 mm
11:57 -11.5 °C -11.8 °C 33914.2 hPa East 7.7 km/h 15.6 km/h 96 % 0 mm
12:02 -11.4 °C -11.8 °C 33914.2 hPa ENE 7.7 km/h 12.9 km/h 96 % 0 mm
12:12 -11.3 °C -11.7 °C 33900.6 hPa ENE 2.6 km/h 12.9 km/h 96 % 0 mm
12:17 -11.3 °C -11.7 °C 33900.6 hPa NE 5.1 km/h 12.9 km/h 96 % 0 mm
12:22 -11.3 °C -11.6 °C 33900.6 hPa Calm   12.9 km/h 96 % 0 mm
12:32 -11.2 °C -11.6 °C 33890.5 hPa Calm   10.3 km/h 96 % 7.62 mm
12:42 -11.1 °C -11.4 °C 33900.6 hPa Calm   7.7 km/h 96 % 7.62 mm
12:47 -11 °C -11.3 °C 33900.6 hPa NE 2.6 km/h 7.7 km/h 96 % 7.62 mm
12:52 -10.9 °C -11.3 °C 33890.5 hPa NE 2.6 km/h 7.7 km/h 96 % 7.62 mm
12:57 -10.8 °C -11.2 °C 33890.5 hPa ENE 5.1 km/h 5.1 km/h 96 % 7.62 mm
13:02 -10.9 °C -11.2 °C 33900.6 hPa NNE 2.6 km/h 5.1 km/h 96 % 7.62 mm
13:07 -10.8 °C -11.1 °C 33900.6 hPa ENE 7.7 km/h 7.7 km/h 96 % 7.62 mm
13:12 -10.7 °C -11.1 °C 33890.5 hPa NE 10.3 km/h 10.3 km/h 96 % 7.62 mm
13:17 -10.7 °C -11.2 °C 33890.5 hPa NNE 2.6 km/h 10.3 km/h 95 % 7.62 mm
13:22 -10.7 °C -11.1 °C 33890.5 hPa Calm   10.3 km/h 95 % 0 mm
13:27 -10.6 °C -11.1 °C 33880.3 hPa Calm   10.3 km/h 95 % 0 mm
13:32 -10.6 °C -11.1 °C 33880.3 hPa ENE 5.1 km/h 7.7 km/h 94 % 0 mm
13:37 -10.6 °C -11.1 °C 33880.3 hPa ENE 5.1 km/h 7.7 km/h 94 % 0 mm
13:42 -10.6 °C -11.1 °C 33880.3 hPa Calm   7.7 km/h 94 % 0 mm
13:57 -10.5 °C -11.1 °C 33880.3 hPa ENE 7.7 km/h 7.7 km/h 93 % 0 mm
14:02 -10.5 °C -11.1 °C 33880.3 hPa ENE 7.7 km/h 12.9 km/h 93 % 0 mm
14:07 -10.5 °C -11.1 °C 33880.3 hPa NE 5.1 km/h 12.9 km/h 93 % 0 mm
14:12 -10.4 °C -10.9 °C 33880.3 hPa ENE 5.1 km/h 12.9 km/h 94 % 0 mm
14:17 -10.4 °C -11.1 °C 33880.3 hPa ENE 5.1 km/h 12.9 km/h 93 % 0 mm
14:22 -10.4 °C -10.9 °C 33880.3 hPa Calm   10.3 km/h 94 % 0 mm
14:27 -10.4 °C -11.1 °C 33880.3 hPa East 7.7 km/h 10.3 km/h 93 % 0 mm
14:32 -10.4 °C -11.1 °C 33880.3 hPa ENE 7.7 km/h 12.9 km/h 93 % 0 mm
14:37 -10.4 °C -11.1 °C 33890.5 hPa ENE 7.7 km/h 12.9 km/h 93 % 0 mm
14:42 -10.4 °C -10.9 °C 33890.5 hPa ENE 12.9 km/h 12.9 km/h 94 % 0 mm
14:47 -10.4 °C -10.9 °C 33890.5 hPa ENE 10.3 km/h 12.9 km/h 94 % 0 mm
14:57 -10.4 °C -10.9 °C 33890.5 hPa ENE 7.7 km/h 15.6 km/h 94 % 0 mm
15:02 -10.5 °C -11 °C 33880.3 hPa ENE 5.1 km/h 15.6 km/h 94 % 0 mm
15:12 -10.6 °C -11.1 °C 33890.5 hPa ENE 5.1 km/h 15.6 km/h 94 % 7.62 mm
15:17 -10.6 °C -11 °C 33880.3 hPa NE 5.1 km/h 15.6 km/h 95 % 7.62 mm
15:22 -10.6 °C -11 °C 33880.3 hPa NE 5.1 km/h 15.6 km/h 95 % 7.62 mm
15:27 -10.6 °C -11 °C 33880.3 hPa NNE 5.1 km/h 10.3 km/h 95 % 7.62 mm
15:37 -10.5 °C -10.9 °C 33880.3 hPa ENE 5.1 km/h 10.3 km/h 95 % 7.62 mm
15:42 -10.5 °C -10.9 °C 33880.3 hPa ENE 2.6 km/h 10.3 km/h 95 % 7.62 mm
15:47 -10.5 °C -10.9 °C 33880.3 hPa NE 2.6 km/h 10.3 km/h 95 % 7.62 mm
15:52 -10.5 °C -10.9 °C 33880.3 hPa ENE 2.6 km/h 7.7 km/h 95 % 7.62 mm
15:57 -10.5 °C -10.9 °C 33880.3 hPa ENE 2.6 km/h 7.7 km/h 95 % 12.7 mm
16:02 -10.5 °C -10.9 °C 33880.3 hPa Calm   7.7 km/h 95 % 12.7 mm
16:07 -10.5 °C -10.8 °C 33880.3 hPa Calm   5.1 km/h 96 % 7.62 mm
16:12 -10.5 °C -10.8 °C 33880.3 hPa Calm   5.1 km/h 96 % 12.7 mm
16:22 -10.5 °C -10.8 °C 33880.3 hPa Calm   5.1 km/h 96 % 12.7 mm
16:27 -10.5 °C -10.8 °C 33866.8 hPa Calm   5.1 km/h 96 % 12.7 mm
16:32 -10.4 °C -10.8 °C 33880.3 hPa Calm   2.6 km/h 96 % 12.7 mm
16:37 -10.4 °C -10.8 °C 33880.3 hPa Calm   2.6 km/h 96 % 12.7 mm
16:42 -10.4 °C -10.8 °C 33880.3 hPa Calm     96 % 12.7 mm
16:47 -10.4 °C -10.8 °C 33880.3 hPa Calm     96 % 12.7 mm
16:52 -10.4 °C -10.8 °C 33880.3 hPa Calm     96 % 7.62 mm
16:57 -10.4 °C -10.8 °C 33880.3 hPa Calm     96 % 7.62 mm
17:02 -10.4 °C -10.8 °C 33880.3 hPa Calm     96 % 7.62 mm
17:07 -10.4 °C -10.8 °C 33880.3 hPa Calm     96 % 7.62 mm
17:12 -10.4 °C -10.8 °C 33880.3 hPa Calm     96 % 0 mm
17:17 -10.4 °C -10.7 °C 33880.3 hPa Calm     96 % 0 mm
17:22 -10.4 °C -10.7 °C 33880.3 hPa Calm     96 % 0 mm
17:27 -10.4 °C -10.8 °C 33880.3 hPa Calm     96 % 0 mm
17:32 -10.4 °C -10.8 °C 33880.3 hPa Calm     96 % 0 mm
17:37 -10.4 °C -10.8 °C 33880.3 hPa Calm     96 % 0 mm
17:42 -10.4 °C -10.8 °C 33880.3 hPa Calm     96 % 0 mm
17:47 -10.4 °C -10.8 °C 33890.5 hPa Calm     96 % 0 mm
17:52 -10.4 °C -10.8 °C 33890.5 hPa Calm     96 % 0 mm
17:57 -10.4 °C -10.8 °C 33890.5 hPa Calm     96 % 0 mm
18:02 -10.4 °C -10.9 °C 33890.5 hPa Calm     95 % 0 mm
18:07 -10.4 °C -10.9 °C 33890.5 hPa Calm     95 % 0 mm
18:12 -10.4 °C -10.9 °C 33890.5 hPa Calm     95 % 7.62 mm
18:17 -10.4 °C -10.8 °C 33890.5 hPa Calm     96 % 7.62 mm
18:22 -10.4 °C -10.9 °C 33890.5 hPa Calm     95 % 12.7 mm
18:37 -10.5 °C -10.8 °C 33890.5 hPa Calm     96 % 25.4 mm
18:42 -10.5 °C -10.8 °C 33890.5 hPa Calm     96 % 25.4 mm
18:47 -10.5 °C -10.8 °C 33900.6 hPa Calm     96 % 33.02 mm
18:57 -10.5 °C -10.8 °C 33900.6 hPa Calm     96 % 50.8 mm
19:02 -10.5 °C -10.8 °C 33900.6 hPa Calm     96 % 58.42 mm
19:07 -10.6 °C -10.9 °C 33900.6 hPa Calm     96 % 58.42 mm
19:12 -10.6 °C -10.9 °C 33900.6 hPa Calm     96 % 58.42 mm
19:17 -10.6 °C -10.9 °C 33900.6 hPa Calm     96 % 58.42 mm
19:27 -10.6 °C -10.9 °C 33914.2 hPa Calm     96 % 50.8 mm
19:37 -10.7 °C -11 °C 33914.2 hPa Calm     96 % 58.42 mm
19:42 -10.7 °C -11 °C 33914.2 hPa Calm     96 % 58.42 mm
19:47 -10.7 °C -11 °C 33914.2 hPa Calm     96 % 58.42 mm
19:52 -10.7 °C -11 °C 33924.3 hPa Calm     96 % 58.42 mm
19:57 -10.7 °C -11 °C 33924.3 hPa Calm     96 % 58.42 mm
20:02 -10.7 °C -11 °C 33924.3 hPa Calm     96 % 50.8 mm
20:07 -10.7 °C -11 °C 33937.9 hPa Calm     96 % 50.8 mm
20:12 -10.7 °C -10.9 °C 33937.9 hPa Calm     97 % 50.8 mm
20:22 -10.7 °C -11 °C 33937.9 hPa WSW 7.7 km/h 7.7 km/h 96 % 58.42 mm
20:27 -10.7 °C -11.1 °C 33937.9 hPa WNW 2.6 km/h 12.9 km/h 96 % 58.42 mm
20:32 -10.8 °C -11.1 °C 33937.9 hPa WNW 12.9 km/h 12.9 km/h 96 % 50.8 mm
20:37 -10.8 °C -11.1 °C 33937.9 hPa West 2.6 km/h 18.2 km/h 96 % 50.8 mm
20:42 -10.8 °C -11.2 °C 33937.9 hPa West 2.6 km/h 18.2 km/h 96 % 45.72 mm
20:47 -10.9 °C -11.2 °C 33937.9 hPa WNW 7.7 km/h 18.2 km/h 96 % 45.72 mm
20:52 -10.9 °C -11.3 °C 33937.9 hPa West 5.1 km/h 20.8 km/h 96 % 38.1 mm
20:57 -11 °C -11.4 °C 33948 hPa WNW 2.6 km/h 20.8 km/h 95 % 38.1 mm
21:02 -11.1 °C -11.5 °C 33948 hPa West 12.9 km/h 20.8 km/h 95 % 38.1 mm
21:07 -11.1 °C -11.6 °C 33948 hPa West 10.3 km/h 20.8 km/h 95 % 38.1 mm
21:12 -11.2 °C -11.6 °C 33948 hPa WSW 12.9 km/h 18.2 km/h 95 % 38.1 mm
21:17 -11.2 °C -11.6 °C 33948 hPa West 15.6 km/h 18.2 km/h 95 % 33.02 mm
21:22 -11.2 °C -11.7 °C 33948 hPa West 5.1 km/h 20.8 km/h 95 % 25.4 mm
21:27 -11.2 °C -11.7 °C 33958.2 hPa WSW 2.6 km/h 20.8 km/h 95 % 25.4 mm
21:32 -11.2 °C -11.7 °C 33958.2 hPa Calm   20.8 km/h 95 % 20.32 mm
21:37 -11.3 °C -11.7 °C 33958.2 hPa Calm   15.6 km/h 95 % 25.4 mm
21:47 -11.3 °C -11.8 °C 33971.7 hPa WSW 2.6 km/h 10.3 km/h 95 % 33.02 mm
21:57 -11.4 °C -11.8 °C 33971.7 hPa SW 5.1 km/h 12.9 km/h 95 % 38.1 mm
22:02 -11.4 °C -11.9 °C 33981.9 hPa SW 2.6 km/h 12.9 km/h 95 % 38.1 mm
22:07 -11.4 °C -11.9 °C 33981.9 hPa SW 10.3 km/h 18.2 km/h 95 % 38.1 mm
22:12 -11.4 °C -11.9 °C 33981.9 hPa WSW 15.6 km/h 18.2 km/h 95 % 38.1 mm
22:17 -11.4 °C -11.9 °C 33981.9 hPa WSW 5.1 km/h 25.9 km/h 95 % 38.1 mm
22:27 -11.4 °C -11.9 °C 33992.1 hPa WSW 7.7 km/h 25.9 km/h 95 % 38.1 mm
22:32 -11.4 °C -11.9 °C 33992.1 hPa SW 7.7 km/h 20.8 km/h 95 % 38.1 mm
22:42 -11.5 °C -11.9 °C 33992.1 hPa West 10.3 km/h 23.3 km/h 95 % 38.1 mm
22:47 -11.5 °C -11.9 °C 33992.1 hPa WSW 5.1 km/h 25.9 km/h 95 % 38.1 mm
22:57 -11.5 °C -11.9 °C 34005.6 hPa WSW 10.3 km/h 28.5 km/h 95 % 25.4 mm
23:02 -11.6 °C -12 °C 34005.6 hPa West 20.8 km/h 28.5 km/h 95 % 20.32 mm
23:07 -11.6 °C -12 °C 34005.6 hPa WSW 12.9 km/h 28.5 km/h 95 % 25.4 mm
23:12 -11.6 °C -12.1 °C 34015.8 hPa West 5.1 km/h 28.5 km/h 95 % 20.32 mm
23:17 -11.6 °C -12.1 °C 34015.8 hPa West 18.2 km/h 28.5 km/h 95 % 20.32 mm
23:22 -11.7 °C -12.1 °C 34015.8 hPa West 18.2 km/h 33.6 km/h 95 % 12.7 mm
23:27 -11.7 °C -12.2 °C 34029.3 hPa WSW 7.7 km/h 33.6 km/h 95 % 12.7 mm
23:32 -11.7 °C -12.2 °C 34029.3 hPa West 18.2 km/h 33.6 km/h 95 % 12.7 mm
23:37 -11.8 °C -12.2 °C 34029.3 hPa WSW 31.1 km/h 41.4 km/h 95 % 12.7 mm
23:42 -11.8 °C -12.2 °C 34029.3 hPa WSW 20.8 km/h 41.4 km/h 95 % 12.7 mm
23:47 -11.8 °C -12.2 °C 34029.3 hPa West 18.2 km/h 41.4 km/h 95 % 12.7 mm
23:52 -11.8 °C -12.2 °C 34029.3 hPa West 10.3 km/h 38.8 km/h 95 % 12.7 mm
23:57 -11.8 °C -12.3 °C 34039.5 hPa West 7.7 km/h 33.6 km/h 95 % 12.7 mm
Meteo18
Compliments of Weather Underground - 4 mb

Script developed by  Jim McMurry - jmcmurry@mwt.net Adapted for the template by  Wim van der Kuil - Leuven-Template.eu

You find our weather info also at:

European Weather Network

Weather Underground

Equipment we use:

Weather-station
Davis Vue

Weather-program
Meteobridge

Weather-server
Raspberry PI 2 B+

Provider
1 and 1

Davis Vue

Meteobridge

Raspberry PI 2 B+

1 and 1